Wind_Speed
30 27 25 21 18 16 13 12 11 13 15 16 17 18 17 17 17 15 10 12 9 5 6 7 5 6 1 4 4 6 3 6 6 6 4 5 4 4 5 9 4 3 5 1 2 3 4 20 20 13 9 12 12 12
31 28 25 23 19 17 15 13 11 12 14 15 16 18 17 18 19 13 13 10 11 9 7 7 7 6 6 7 4 4 3 2 5 4 5 4 7 4 9 6 4 1 1 4 4 5 11 15 15 15 14 15 7 8
31 29 26 24 21 19 17 15 12 12 13 14 15 17 17 18 18 17 14 9 6 12 9 5 7 7 5 4 5 4 5 5 5 5 2 3 4 5 5 7 9 6 2 3 8 2 15 17 11 17 16 15 12 7
33 30 28 25 23 20 18 16 14 13 13 13 14 16 17 19 20 17 16 15 6 2 3 4 3 5 5 5 4 4 5 2 2 3 2 3 5 5 6 10 12 10 12 8 12 15 17 10 21 21 21 15 12 7
34 31 28 26 24 21 20 18 15 14 13 12 12 14 14 13 14 12 17 16 12 5 4 5 8 5 5 5 4 2 1 3 3 2 2 3 3 4 6 9 9 7 4 1 4 13 13 19 24 27 18 13 10 9
37 33 30 28 25 23 21 19 16 15 13 11 11 13 13 12 7 3 3 12 13 7 2 3 7 6 5 3 3 2 1 3 2 2 4 6 8 3 3 5 2 12 8 8 9 13 18 24 27 24 20 11 7 7
37 35 31 30 27 24 22 20 17 15 13 11 10 13 14 17 13 8 4 3 10 6 2 3 5 5 3 4 5 4 2 2 2 2 3 4 6 2 3 9 8 11 12 13 14 15 20 23 16 21 11 9 5 5
39 37 34 32 28 25 23 22 18 15 13 10 9 10 10 8 10 11 9 6 7 3 2 1 3 5 5 2 2 2 2 1 3 3 3 5 5 4 3 5 13 15 17 17 16 15 18 21 24 17 7 3 4 6
41 37 35 32 30 27 25 22 19 16 13 10 9 8 5 4 5 4 6 9 6 4 2 1 3 3 2 4 3 4 3 2 3 3 2 3 3 1 9 15 16 17 12 17 20 18 18 19 14 11 6 2 6 5
41 38 38 32 32 29 26 23 21 16 12 9 5 2 3 4 4 3 3 3 5 3 1 2 1 2 3 5 3 1 3 2 2 1 2 1 3 5 11 12 12 17 20 19 16 14 13 4 9 9 10 3 6 7
39 38 39 33 34 30 28 25 23 18 10 2 2 2 5 3 1 2 2 2 1 1 3 2 4 3 3 4 4 3 3 2 3 1 3 2 1 11 16 16 22 29 25 14 17 15 8 7 6 6 7 5 6 7
41 38 37 34 36 32 30 28 25 12 6 5 6 7 5 1 2 2 2 3 3 1 4 2 2 1 2 2 2 2 2 3 3 2 1 2 6 13 14 19 22 27 23 9 5 5 5 4 5 5 9 5 5 6
42 41 37 35 38 36 32 30 24 9 11 5 2 3 2 1 1 2 4 2 3 4 3 3 2 2 3 1 1 3 1 3 6 1 1 1 8 11 13 15 21 30 26 17 17 14 8 5 5 5 9 12 3 7
42 42 38 34 40 38 34 31 19 13 1 2 3 2 3 3 4 4 5 8 5 4 3 1 2 0 1 1 2 2 3 3 2 2 3 3 8 11 11 14 16 19 26 19 16 15 16 13 11 9 8 7 7 5
44 40 37 35 38 37 33 30 18 5 0 2 3 3 5 4 3 1 4 4 5 2 2 1 2 2 1 1 3 2 3 3 2 3 3 3 3 7 13 15 16 19 23 20 21 18 16 16 11 13 13 10 9 8
44 37 35 41 38 36 35 26 11 2 3 2 3 3 2 5 3 3 3 5 3 1 3 0 2 2 4 2 3 5 3 2 2 4 3 3 3 1 7 17 23 23 24 22 13 15 19 17 16 11 10 13 14 10
47 9 42 43 41 38 34 15 4 2 2 3 4 5 3 6 6 4 3 2 5 2 0 0 2 4 2 2 2 2 0 1 2 4 4 5 5 5 4 5 16 23 22 25 20 14 10 11 12 15 14 15 16 14
24 30 51 45 45 36 15 4 4 3 5 6 4 4 6 3 5 5 2 4 2 1 3 3 3 4 3 5 5 3 4 2 1 3 3 6 9 10 13 4 2 17 19 21 25 15 15 9 10 10 12 13 13 14
33 49 56 53 44 18 6 5 4 5 8 4 6 4 6 7 8 5 5 4 3 4 4 3 4 5 8 9 8 9 8 7 6 4 5 6 9 12 17 13 9 12 12 19 21 16 11 11 9 11 12 11 10 11
41 55 59 53 41 6 4 3 6 3 4 4 3 7 7 7 9 10 10 10 6 6 6 4 6 9 9 9 8 9 9 14 8 8 7 9 14 16 18 16 12 17 15 12 16 18 6 8 9 8 8 8 9 9
50 55 60 42 8 4 3 5 5 5 3 3 4 6 4 4 7 8 9 12 8 8 9 10 11 10 18 18 19 18 18 18 9 8 9 9 13 14 15 13 17 21 14 10 10 13 12 8 7 8 10 9 8 6
25 55 22 13 4 3 4 9 5 7 4 2 5 5 3 5 7 8 8 8 8 10 11 9 10 14 13 16 18 21 22 23 24 22 23 25 16 16 17 19 21 17 10 9 11 13 14 12 9 9 12 12 11 7
42 20 12 4 4 4 4 13 4 6 4 4 5 4 4 4 5 6 4 6 10 17 18 18 20 22 20 22 23 23 23 24 20 18 19 20 19 18 18 21 22 16 14 14 13 12 13 12 11 13 14 16 12 12
29 6 4 5 4 5 4 4 4 5 4 5 5 3 3 3 4 5 8 10 9 14 15 19 18 14 17 19 16 18 21 20 20 21 21 21 19 18 17 19 20 20 18 16 13 13 13 16 17 18 19 19 18 15
6 5 6 5 5 6 5 7 6 5 5 5 7 4 4 3 3 3 5 4 4 6 9 14 15 13 8 9 14 16 18 18 16 14 17 18 20 19 17 18 21 24 22 20 20 19 20 21 23 22 20 16 14 13
5 7 10 8 7 7 8 7 8 7 4 6 6 3 3 3 3 5 4 2 4 5 4 5 5 5 6 7 7 10 14 14 14 15 18 19 20 19 17 14 14 19 22 23 23 24 25 24 22 20 20 17 15 14
6 6 6 8 7 9 5 6 8 6 6 6 5 5 4 5 7 4 3 10 8 11 7 8 5 2 6 11 14 15 15 13 14 17 18 18 18 17 18 18 18 18 17 18 20 22 24 24 22 20 19 18 17 15
3 8 11 13 8 5 6 7 6 7 6 5 7 7 7 8 6 3 4 9 15 15 13 12 11 12 15 16 18 18 19 21 20 20 22 23 24 24 26 27 23 23 25 23 22 21 20 20 22 22 21 20 21 20
3 9 11 14 10 3 4 5 7 5 7 9 8 7 5 4 5 6 6 10 14 15 14 15 18 21 20 21 23 23 23 20 17 13 13 9 16 21 21 19 21 22 22 24 26 26 26 27 26 24 26 27 26 20
10 9 6 7 7 5 4 5 7 7 13 8 6 4 6 7 11 15 17 17 20 22 26 28 27 25 24 22 22 26 29 28 27 25 14 14 23 27 22 20 18 19 20 22 22 22 23 23 22 22 21 21 20 19
10 6 4 5 4 3 4 4 2 4 1 3 4 6 8 7 19 21 22 25 30 29 28 26 30 28 21 23 23 22 24 27 30 32 35 33 31 31 31 30 26 24 22 20 19 18 18 19 17 17 18 18 17 17
7 5 5 5 4 3 4 4 3 3 3 3 4 3 1 4 14 15 28 37 29 25 32 30 26 31 29 29 29 30 30 29 26 24 24 25 26 27 27 27 24 21 19 19 19 19 20 20 20 19 19 19 19 18
4 4 2 4 4 7 4 4 6 4 5 5 6 8 10 7 9 4 12 15 19 23 22 21 21 22 21 20 22 24 24 25 26 28 29 28 29 28 26 23 23 23 23 23 23 21 21 21 22 21 20 21 20 20
Wind_Direction
168 168 168 169 163 155 146 131 114 93 79 79 75 68 72 71 66 64 45 32 22 92 76 58 40 50 94 13 7 7 262 14 10 15 340 3 326 339 312 321 5 328 341 9 290 259 271 8 342 24 336 322 345 343
170 170 169 169 166 159 150 139 124 103 89 78 78 73 77 75 64 72 57 35 30 63 91 85 70 52 40 38 329 67 115 39 25 359 14 326 341 325 327 301 351 13 98 325 302 288 313 318 295 295 341 334 342 345
174 172 169 167 166 163 154 146 135 114 97 85 75 72 74 81 72 63 54 30 117 116 128 129 77 62 64 62 31 334 82 354 51 28 5 293 286 318 313 307 313 348 336 286 316 325 329 305 319 352 337 322 340 346
177 173 169 168 166 164 158 151 141 123 105 92 81 72 80 84 72 64 55 33 37 345 142 96 113 77 83 90 85 51 43 60 37 352 328 289 285 299 301 297 298 298 297 299 290 295 318 315 330 326 322 326 342 324
175 170 169 169 167 164 160 155 146 130 116 101 85 76 76 86 84 79 58 45 35 354 61 117 124 109 114 105 109 112 310 330 352 322 256 253 276 309 289 275 271 293 33 321 290 319 303 294 309 307 321 341 339 299
174 174 173 170 167 165 161 157 150 137 122 107 89 76 70 72 64 34 55 34 25 20 330 170 104 148 130 109 140 144 18 34 333 300 287 274 273 280 293 292 243 12 337 290 287 291 289 289 292 304 315 344 301 255
175 176 177 173 169 166 162 159 153 142 130 115 91 73 75 62 62 68 57 26 7 360 358 172 148 143 155 165 163 113 50 78 302 277 243 273 299 227 260 278 323 333 318 307 296 298 292 295 317 309 333 326 245 164
179 179 179 176 170 167 163 161 156 148 137 120 91 77 97 78 82 58 25 8 31 49 345 341 110 151 189 198 133 164 128 170 196 270 274 271 288 226 269 337 309 314 320 301 290 289 284 294 295 306 20 321 115 130
181 180 178 177 172 169 166 163 159 152 139 118 89 86 24 21 41 47 48 49 36 40 1 267 333 95 195 274 116 175 183 244 126 243 259 352 299 209 311 307 303 301 292 287 293 286 284 279 283 343 352 288 115 132
182 183 180 178 174 171 167 165 160 153 134 113 62 71 36 52 66 35 357 23 22 24 315 325 262 84 338 5 4 332 180 265 261 63 298 217 253 279 301 304 293 296 292 287 278 282 268 319 351 335 336 355 141 153
182 184 180 179 174 172 168 165 160 145 123 95 76 73 106 93 15 15 45 6 20 245 182 68 27 360 54 350 331 332 320 303 290 88 323 275 320 338 335 329 331 320 309 286 241 258 289 303 301 312 318 352 81 123
181 181 178 181 174 172 170 168 161 144 141 128 122 108 147 117 58 53 78 127 225 71 148 148 93 46 77 6 308 288 303 315 280 186 344 313 339 348 328 345 334 327 334 34 20 358 350 340 323 344 323 35 126 130
179 178 178 180 177 174 172 170 157 156 131 130 97 52 170 38 174 222 159 183 185 154 154 190 173 213 156 249 305 260 359 255 287 306 3 339 354 342 339 343 338 349 1 25 33 34 22 12 16 5 356 17 71 130
176 175 177 180 174 176 173 167 158 163 162 129 150 151 219 163 243 214 44 114 118 119 136 357 325 308 228 208 230 265 288 287 291 294 57 11 29 357 347 344 349 353 351 18 23 31 18 39 33 40 33 14 15 108
174 173 173 173 172 172 171 165 159 148 62 189 194 226 201 231 204 75 87 114 123 159 249 335 251 235 248 189 242 275 293 281 6 7 339 9 79 34 7 345 346 352 353 13 16 16 17 22 50 43 36 33 41 47
171 168 169 170 171 171 168 159 151 80 21 275 241 255 249 175 156 145 159 112 118 191 190 296 318 243 226 224 202 210 249 13 80 11 9 330 347 103 54 351 334 344 348 350 15 28 8 19 26 56 42 51 46 29
168 140 172 173 169 167 159 147 112 129 212 249 226 231 223 186 170 186 206 147 103 277 346 72 271 230 307 263 234 256 149 227 20 5 358 359 341 27 299 37 340 331 339 340 343 15 38 21 38 27 24 37 46 27
165 161 167 166 157 150 149 141 148 164 228 223 225 212 218 251 161 169 167 159 167 231 272 244 263 271 260 242 238 259 45 45 269 283 322 10 1 333 313 288 55 321 316 326 332 356 3 41 29 35 31 36 40 24
157 161 163 159 152 139 136 186 196 194 221 217 203 223 221 225 245 268 287 235 218 243 275 269 242 240 246 260 280 293 300 304 306 343 305 297 317 332 330 324 310 263 280 313 319 320 356 11 40 36 25 22 29 27
159 162 161 158 154 123 128 129 182 223 212 195 206 217 227 227 233 238 242 242 238 224 211 233 247 251 261 276 297 311 316 319 321 313 305 313 318 325 306 299 317 312 300 230 303 310 7 360 6 25 15 12 11 3
152 158 161 155 142 142 156 163 190 204 188 203 211 217 220 235 241 242 242 242 241 236 239 233 240 248 263 275 283 289 290 295 292 290 289 288 285 285 308 310 306 294 289 335 336 311 314 315 337 348 349 345 335 336
143 152 149 157 98 159 185 203 158 168 174 227 174 209 234 229 238 244 251 248 246 242 244 252 255 261 263 262 265 268 270 264 261 260 264 273 273 272 271 270 272 271 305 303 302 305 301 297 301 306 319 328 328 313
141 145 140 122 130 179 159 162 146 173 160 186 175 200 219 238 248 244 239 231 241 246 252 255 262 265 265 266 269 270 271 277 281 279 278 276 274 263 258 265 273 279 271 266 271 279 284 288 287 298 305 311 307 297
141 108 137 144 153 142 153 165 169 160 173 175 176 212 218 211 227 235 247 243 246 248 251 251 247 250 255 255 254 259 263 264 264 265 264 265 267 266 260 262 267 260 257 267 276 273 274 277 281 283 291 294 295 302
120 161 164 150 150 140 148 156 169 164 165 184 185 193 193 206 235 251 260 261 256 267 269 267 255 248 258 266 271 273 276 276 269 269 266 261 264 268 260 253 254 260 265 257 258 266 270 271 273 280 286 283 280 289
143 180 182 153 156 151 158 152 169 162 146 180 204 189 180 210 238 240 251 256 233 237 198 221 229 236 249 269 308 315 315 312 284 265 260 259 258 257 263 263 255 253 254 258 264 269 270 267 272 278 282 280 278 283
151 171 188 166 155 131 134 138 149 147 169 176 176 172 168 218 231 239 245 232 244 259 251 175 179 236 283 291 291 287 287 285 288 292 300 301 292 289 276 262 260 267 262 260 263 269 268 263 262 270 273 278 278 280
147 161 162 157 155 152 123 144 170 174 167 180 160 189 201 206 227 202 213 222 224 228 214 209 214 250 266 271 272 267 265 273 279 281 280 278 276 274 275 267 260 259 260 262 264 265 268 268 268 270 268 271 280 285
134 149 144 151 147 140 178 166 181 178 167 172 186 197 211 213 206 211 229 224 223 222 232 245 253 262 268 270 268 265 267 266 261 258 263 263 267 267 264 268 271 267 263 261 264 268 268 266 264 261 266 273 278 281
147 146 132 161 174 172 188 175 174 161 196 198 208 238 240 229 227 239 249 246 245 244 245 251 258 262 259 258 264 264 260 257 253 253 253 252 251 264 274 274 276 272 268 262 258 257 257 260 264 268 270 272 272 273
148 132 109 147 185 177 169 132 119 143 181 233 264 252 256 270 266 260 256 256 256 257 259 255 255 255 250 256 255 257 265 268 264 261 250 252 259 264 268 270 272 266 268 269 262 258 260 261 261 262 264 263 264 267
153 159 139 134 142 148 136 166 157 174 202 223 242 239 237 259 266 270 246 248 249 246 249 253 256 259 259 258 258 257 260 262 264 268 268 262 260 262 266 270 264 259 254 250 249 250 256 257 257 257 260 263 265 264
114 139 142 119 133 160 163 150 183 212 210 231 236 227 235 244 257 267 268 246 244 251 252 254 258 263 268 266 262 262 261 262 263 268 269 265 265 268 268 264 255 247 246 244 248 246 246 248 253 254 255 257 261 265
Height
823 829 835 841 846 848 851 853 854 855 855 854 854 855 855 856 855 855 859 856 856 859 871 872 871 870 870 873 869 873 871 874 870 865 860 856 853 850 850 842 845 850 853 844 842 838 828 830 818 816 815 801 791 783
823 829 835 841 847 850 852 855 857 858 859 859 858 860 861 861 860 860 862 862 862 863 875 878 879 880 880 881 878 876 878 877 878 879 878 871 865 861 856 854 844 853 865 861 860 841 834 841 834 821 808 801 793 789
823 830 835 841 847 852 853 856 859 862 862 862 863 864 865 866 865 865 867 868 867 868 874 876 879 883 883 884 885 882 881 884 886 888 889 883 877 863 867 857 853 851 853 854 856 834 836 835 823 817 810 801 793 789
823 829 835 842 848 853 855 858 861 864 866 866 867 868 869 870 870 870 871 872 869 869 866 881 883 883 885 886 887 888 889 888 889 888 887 884 875 867 866 861 858 854 850 848 849 842 838 818 824 816 807 798 794 790
823 829 837 843 849 854 857 860 863 866 869 870 870 872 872 873 873 876 876 877 877 876 867 876 882 886 886 887 888 890 890 889 886 891 889 885 874 872 864 856 852 847 856 863 852 853 854 837 826 816 805 797 796 792
823 831 837 844 850 855 859 862 866 869 871 873 874 875 875 876 875 876 878 882 881 880 875 871 882 884 886 887 888 889 889 892 893 894 891 879 872 875 872 856 849 851 854 856 856 853 848 837 826 812 805 799 795 792
823 831 839 844 850 856 860 864 868 872 874 876 877 878 878 877 876 880 885 888 884 883 882 873 874 881 883 885 885 889 893 895 898 895 892 884 874 876 868 859 854 857 857 855 854 850 842 831 818 809 802 799 795 792
822 831 839 845 851 856 862 867 870 874 877 878 880 881 882 882 882 885 889 888 886 886 885 877 871 876 882 878 886 888 891 896 897 892 884 877 872 870 863 857 859 855 857 854 848 845 840 830 819 807 803 800 796 795
822 831 839 845 852 857 864 868 873 877 879 881 882 883 884 884 887 891 891 889 890 892 883 877 868 873 877 876 876 886 890 888 890 889 879 881 872 869 869 867 862 858 856 851 845 839 830 824 813 808 804 801 801 801
822 831 839 846 853 859 865 870 875 879 882 884 885 887 890 892 893 893 892 892 892 892 889 879 877 872 876 873 874 878 883 883 879 881 880 882 875 869 868 864 858 850 843 839 835 829 818 814 815 814 809 803 804 805
822 831 839 846 853 860 866 872 877 882 884 887 888 891 894 894 894 893 898 894 894 890 884 880 882 878 879 880 879 873 876 872 874 877 874 871 872 871 867 859 850 840 829 819 821 819 817 817 817 815 812 808 807 808
822 830 839 847 854 861 867 873 878 883 885 887 888 892 894 895 897 897 892 891 890 877 878 877 878 878 880 883 883 880 878 875 873 869 874 872 872 876 867 860 848 836 824 818 818 817 816 817 815 815 813 810 811 811
821 830 839 847 854 862 867 874 880 883 886 889 890 895 893 898 898 892 893 884 881 874 876 876 879 878 881 881 884 879 882 879 862 867 873 879 876 875 869 863 851 838 827 824 821 820 819 817 816 816 815 815 814 815
821 830 839 847 855 863 869 877 882 886 887 888 893 895 890 895 886 872 864 866 871 874 875 874 875 875 875 879 879 878 869 865 867 867 877 873 875 873 869 864 856 847 835 829 828 826 823 820 820 819 818 818 817 817
822 831 841 849 857 865 873 880 885 888 887 888 885 886 881 871 869 868 871 870 873 874 874 874 874 874 875 880 877 874 873 869 862 876 871 870 873 873 869 863 859 853 847 838 833 831 828 826 825 823 822 821 820 821
823 836 842 849 859 868 876 883 887 888 889 888 883 877 869 871 873 873 871 874 875 876 874 876 874 875 873 871 872 877 866 863 869 866 866 867 867 869 867 866 859 856 851 848 842 838 833 828 828 828 827 824 823 823
822 827 839 851 860 869 879 884 889 891 890 886 879 875 871 871 875 874 873 872 876 876 876 877 883 878 869 871 870 859 863 864 862 865 865 865 864 865 864 863 862 857 855 850 844 841 840 836 833 830 828 826 826 826
821 828 839 852 861 874 881 884 886 888 887 881 878 874 874 870 870 871 872 873 876 877 878 878 875 875 872 865 860 856 860 863 867 866 864 863 863 864 862 860 860 859 855 852 848 844 841 839 838 836 834 831 831 831
817 827 838 850 859 870 880 884 884 881 875 869 872 873 872 872 871 871 873 873 876 878 879 876 876 874 870 865 863 861 859 859 859 860 862 862 862 862 861 859 857 856 855 852 849 846 844 840 839 838 836 835 834 833
820 830 841 850 860 868 875 880 881 876 867 867 870 871 868 868 869 870 872 873 874 875 878 879 873 868 866 864 864 863 862 862 862 862 861 861 861 860 860 857 855 853 850 848 849 845 844 843 841 840 839 838 836 835
823 832 842 851 858 864 864 867 868 864 864 866 865 865 864 865 866 866 866 868 868 868 868 863 862 864 865 865 865 865 864 864 862 861 859 857 858 858 857 855 855 851 847 845 845 844 843 842 841 840 839 837 836 835
817 830 841 849 854 860 862 860 858 862 864 862 861 862 863 864 864 864 864 863 862 858 855 856 856 857 857 858 859 860 859 858 857 856 856 854 853 854 853 852 851 847 845 845 846 844 842 841 840 839 838 836 835 835
819 831 841 847 852 856 857 855 857 858 860 860 859 861 861 861 859 858 856 851 848 849 850 850 850 851 852 853 853 853 853 853 851 850 849 847 846 846 846 846 846 843 842 842 842 841 840 838 837 837 836 835 833 831
821 829 834 838 841 849 853 854 851 854 855 855 856 858 856 856 854 852 848 842 839 842 842 843 844 844 845 845 846 845 845 845 844 843 842 841 840 840 840 839 839 837 836 836 835 835 835 835 834 833 832 830 829 827
817 827 830 830 834 841 845 846 847 847 853 853 853 855 853 851 851 847 841 830 832 833 834 833 834 835 837 837 837 837 838 837 835 834 833 833 833 833 833 833 833 833 832 831 830 830 830 830 829 828 827 827 826 825
806 816 814 814 823 824 829 837 841 844 845 848 845 846 847 849 849 845 834 826 826 827 828 830 830 830 831 833 834 834 833 832 829 828 827 828 827 825 824 825 825 825 826 825 824 823 823 822 822 823 823 822 822 822
796 801 800 799 804 810 820 826 830 835 841 843 841 845 846 849 843 832 824 823 825 826 825 826 827 829 831 832 832 831 830 829 829 828 825 823 822 820 819 818 818 819 820 819 819 818 816 816 817 817 817 817 817 817
782 785 791 794 799 802 811 819 823 826 829 830 834 839 836 832 826 819 818 818 821 823 824 824 824 825 826 826 826 825 825 824 823 821 818 816 815 813 813 813 811 812 813 814 813 813 813 812 811 811 811 811 811 812
777 779 785 793 798 802 806 809 810 811 813 817 821 819 818 813 812 813 814 816 818 819 820 820 819 819 818 818 818 818 818 818 817 815 814 810 808 805 805 805 805 803 804 805 805 805 805 806 805 805 805 804 804 805
774 776 784 792 794 796 799 799 803 805 806 805 805 804 803 805 807 808 810 812 813 811 810 810 809 810 808 808 807 807 807 808 808 808 804 800 797 797 797 797 797 797 797 797 798 798 798 798 798 798 798 798 797 797
772 777 786 789 794 795 797 799 802 803 804 806 804 803 801 801 801 803 804 804 800 799 800 798 796 796 797 797 797 797 794 793 793 793 793 792 791 790 789 789 789 790 790 790 790 790 791 791 791 791 792 792 792 792
771 775 779 786 794 798 800 803 805 806 806 806 801 803 802 802 796 790 791 789 787 787 784 786 787 782 785 785 785 785 785 785 786 785 784 784 783 782 782 781 782 783 783 784 784 785 786 786 786 786 786 786 786 786
775 778 780 784 791 796 800 801 801 801 803 797 794 793 793 794 788 780 777 776 776 775 774 775 776 776 777 777 778 777 777 777 776 776 775 775 775 774 774 773 774 775 775 776 777 778 778 779 779 779 780 779 780 780